Zurück zum Katalog

STARLINK-34234

AktivKommunikationVLEO
NORAD 64248·PAYLOAD·🇺🇸 United States

Gestartet Jun 3, 2025 von Cape Canaveral Space Force Station

Loading…

Nächste Überflüge (nächste 24 Stunden)

TLE

AktuellSource: CelesTrak SupGP

Epoche: Sep 14, 2026, 15:43 UTC

1 64248C 25119R   26257.65534722  .00041735  00000+0  15123-2 0  2578
2 64248  43.0025 319.9166 0001432 275.5889 263.9971 15.27544179    12

Verfolge STARLINK-34234 in Echtzeit mit AllMySat

Download on the App Store